2001 SG286 

Epoch 2001 Sep. 28.0 TT = JDT 2452180.5                 Nakano

M  39.92843              (2000.0)            P               Q

n   0.61984190     Peri.   55.78496     +0.44904558     +0.88558411

a   1.3623293      Node   241.32634     -0.85783911     +0.39012231

e   0.3489821      Incl.    7.77800     -0.24994025     +0.25208207

P   1.59           H   20.9           G   0.15           U   *

Residuals in seconds of arc 

010927 704  2.0-  0.3+    010928 046  0.5+  0.1+    011010 696  0.5+  0.0   

010927 704  0.4+  0.4-    010929 557  0.4-  0.1-    011013 867  0.4+  0.0   

010927 704  0.3-  0.3-    010929 557  0.1-  0.0     011013 867  0.6+  0.2+  

010927 704  0.5+  0.1+    010929 649  0.9+  0.4+    011013 867  0.1+  0.1+  

010928 649  0.2+  0.3+    010929 649  0.1+  0.6-    011015 046  0.1-  0.1+  

010928 649  0.3+  0.0     010929 649  0.2-  0.7+    011015 046  0.0   0.0   

010928 649  0.1-  0.5+    011010 696  1.5-  1.5-    011015 046  0.3-  0.1-  

010928 046  0.4+  0.9-    011010 696  0.2+  1.1+    011015 046  0.2-  0.0   

  

NAKANO

         **** Don't distribute anyone except personal use only ****

                (C) Copyright 2001 OAA/ComputingSection

write mail from CFAD0::NAKANO on 2001-10-26 03:09:01(JST).

 



–ß‚è‚Ü‚·B